SCP
0 0 0 0 0 0 0 0 0 0 0 0 0 0 0 0 0 0 0 0 0 0 0 0 0 0 0 0 0 0 0 0 0 0 0 0 0 0 0 0 0 0 0 0
0 0 0 0 0 0 0 0 0 0 0 0 0 0 0 0 0 0 0 0 0 0 0 0 0 0 0 0 0 0 0 0 0 0 0 0 0 0 0 0 0 0 0 0
0 0 0 0 0 0 0 0 0 0 0 0 0 0 0 0 0 0 0 0 0 0 0 0 0 0 0 0 0 0 0 0 0 0 0 0 0 0 0 0 0 0 0 0
0 0 0 0 0 0 0 0 0 0 0 0 0 0 0 0 0 0 0 0 0 0 0 0 0 0 0 0 0 0 0 0 0 0 0 0 0 0 0 0 0 0 0 0
0 0 0 0 0 0 0 0 0 0 0 0 0 0 0 0 0 0 0 0 0 0 0 0 0 0 0 0 0 0 0 0 0 0 0 0 0 0 0 0 0 0 0 0
0 0 0 0 0 0 0 0 0 0 0 0 0 0 0 0 0 0 0 0 0 0 0 0 0 0 0 0 0 0 0 0 0 0 0 0 0 0 0 0 0 0 0 0
0 0 0 0 0 0 0 0 0 0 0 0 0 0 0 0 0 0 0 0 0 0 0 0 0 0 0 0 0 0 0 0 0 0 0 0 0 0 0 0 0 0 0 0
0 0 0 0 0 0 0 0 0 0 0 0 0 0 0 0 0 0 0 0 0 0 0 0 0 0 0 0 0 0 0 0 0 0 0 0 0 0 0 0 0 0 0 0
0 0 0 0 0 0 0 0 0 0 0 0 0 0 0 0 0 0 0 0 0 0 0 0 0 0 0 0 0 0 0 0 0 0 0 0 0 0 0 0 0 0 0 0
0 0 0 0 0 0 0 0 0 0 0 0 0 0 0 0 0 0 0 0 0 0 0 0 0 0 0 0 0 0 0 0 0 0 0 0 0 0 0 0 0 0 0 0
0 0 0 0 0 0 0 0 0 0 0 0 0 0 0 0 0 0 0 0 0 0 0 0 0 0 0 0 0 0 0 0 0 0 0 0 0 0 0 0 0 0 0 0
0 0 0 0 0 0 0 0 0 0 0 0 0 0 0 0 0 0 0 0 0 0 0 0 0 0 0 0 0 0 0 0 0 0 0 0 0 0 0 0 0 0 0 0
0 0 0 0 0 0 0 0 0 0 0 0 0 0 0 0 0 0 0 0 0 0 0 0 0 0 0 0 0 0 0 0 0 0 0 0 0 0 0 0 0 0 0 0
0 0 0 0 0 0 0 0 0 0 0 0 0 0 0 0 0 0 0 0 0 0 0 0 0 0 0 0 0 0 0 0 0 0 0 0 0 0 0 0 0 0 0 0
0 0 0 0 0 0 0 0 0 0 0 0 0 0 0 0 0 0 0 0 0 0 0 0 0 0 0 0 0 0 0 0 0 0 0 0 0 0 0 0 0 0 0 0
0 0 0 0 0 0 0 0 0 0 0 0 0 0 0 0 0 0 0 0 0 0 0 0 0 0 0 0 0 0 0 0 0 0 0 0 0 0 0 0 0 0 0 0
0 0 0 0 0 0 0 0 0 0 0 0 0 0 0 0 0 0 0 0 0 0 0 0 0 0 0 0 -0 0 0 0 0 0 0 0 0 0 0 0 0 0 0 0
0 0 0 0 0 0 0 0 0 0 0 0 0 0 0 0 0 0 0 0 0 0 0 0 0 0 0 0 0 0 0 0 0 0 0 0 0 0 0 0 0 0 0 0
0 0 0 0 0 0 0 0 0 0 0 0 0 0 0 0 0 0 0 0 0 0 0 0 0 0 0 0 0 0 0 0 0 0 0 0 0 0 0 0 0 0 0 0
0 0 0 0 0 0 0 0 0 0 0 0 0 0 0 0 0 0 0 0 0 0 0 0 0 0 0 0 0 0 0 0 0 0 0 0 0 0 0 0 0 0 0 0
0 0 0 0 0 0 0 0 0 0 0 0 0 0 0 0 0 0 0 0 0 0 0 0 0 0 0 0 0 0 0 0 0 0 0 0 0 0 0 0 0 0 0 0
0 0 0 0 0 0 0 0 0 0 0 0 0 0 0 0 0 0 0 0 0 0 0 0 0 0 0 0 0 0 0 0 0 0 0 0 0 0 0 0 0 0 0 0
0 0 0 0 0 0 0 0 0 0 0 0 0 0 0 0 0 0 0 0 0 0 0 0 0 0 0 0 0 0 0 0 0 0 0 0 0 0 0 0 0 0 0 0
0 0 0 0 0 0 0 0 0 0 0 0 0 0 0 0 0 0 0 0 0 0 0 0 0 0 0 0 0 0 0 0 0 0 0 0 0 0 0 0 0 0 0 0
0 0 0 0 0 0 0 0 0 0 0 0 0 0 0 0 0 0 0 0 0 0 0 0 0 0 0 0 0 0 0 0 0 0 0 0 0 0 0 0 0 0 0 0
0 0 0 0 0 0 0 0 0 0 0 0 0 0 0 0 0 0 0 0 0 0 0 0 0 0 0 0 0 0 0 0 0 0 0 0 0 0 0 0 0 0 0 0
Wind_Speed_500mb
7 12 6 3 4 3 5 3 5 5 3 4 2 5 6 14 28 27 28 26 19 15 12 11 10 29 28 27 33 31 26 25 31 28 25 22 19 18 16 15 16 19 25 26
12 6 4 6 8 6 10 5 4 2 4 6 9 8 2 14 16 26 29 25 17 12 12 14 7 12 21 24 22 26 24 21 26 25 21 22 18 16 14 19 19 21 27 29
9 2 9 5 12 9 8 6 5 3 13 4 10 7 5 6 27 30 28 24 20 18 17 16 15 11 18 22 21 19 20 17 19 23 25 21 19 18 19 22 24 29 31 30
10 10 6 9 8 5 3 6 5 6 9 4 7 8 9 9 10 15 21 23 22 19 19 22 16 16 15 18 23 21 21 20 20 22 22 21 20 19 19 22 28 32 33 31
5 7 10 10 2 4 4 6 7 6 7 8 8 7 14 15 7 8 19 25 23 22 21 21 24 19 14 14 18 24 24 23 21 19 19 20 19 18 17 21 28 32 32 29
4 4 6 3 5 6 7 8 12 7 6 6 8 8 9 12 14 10 20 25 24 20 19 18 16 17 20 19 16 15 14 14 13 12 13 16 19 20 22 24 29 32 34 32
7 4 5 9 3 7 11 10 7 9 7 10 7 4 17 4 12 19 28 26 23 17 17 16 17 18 16 14 13 11 10 9 10 13 17 21 25 28 32 34 37 37 35 34
7 12 6 14 6 4 1 11 9 11 4 8 7 11 10 7 32 38 35 28 20 18 16 18 20 21 21 19 16 12 8 2 5 12 18 24 29 35 41 45 46 45 44 41
6 7 3 9 7 5 6 2 3 12 4 7 6 12 9 6 11 29 26 21 18 17 16 16 16 15 15 14 12 10 8 8 10 12 15 19 23 27 31 34 38 42 44 48
4 5 3 5 2 6 8 2 8 6 1 9 11 12 11 14 18 8 22 23 21 18 16 13 11 8 5 4 9 13 16 20 23 24 26 28 31 34 36 38 40 42 42 42
8 8 9 4 6 12 4 4 3 4 8 9 4 12 10 16 17 21 34 29 26 23 17 12 8 5 4 8 15 20 24 28 30 32 34 35 36 38 41 45 48 50 50 49
4 8 6 15 5 5 6 11 10 8 12 5 4 17 4 13 31 49 44 33 26 21 17 13 7 6 7 14 19 24 29 34 38 41 42 41 41 42 42 44 44 46 52 54
7 3 6 14 6 6 7 10 8 5 3 11 7 17 5 7 22 50 45 37 30 25 20 16 12 10 12 17 23 29 34 38 42 44 46 47 47 49 49 49 48 47 48 48
3 6 13 13 14 9 8 9 11 10 6 7 22 24 11 11 14 34 41 39 32 27 24 19 17 12 17 24 31 36 38 38 41 43 44 46 47 50 52 54 53 53 52 55
6 9 3 9 16 11 12 9 19 20 22 17 50 26 21 23 28 61 60 41 31 27 26 26 21 15 22 33 40 38 37 37 38 40 41 43 45 49 52 55 56 56 57 59
1 7 5 11 16 13 14 19 22 33 40 33 46 54 12 15 30 40 55 45 34 29 27 30 26 23 37 48 46 37 37 37 40 43 45 47 49 51 51 53 55 58 61 62
7 7 5 12 8 11 16 18 33 14 7 22 30 36 10 3 20 36 46 45 37 30 28 27 31 38 49 49 40 39 42 44 47 49 50 53 55 58 57 59 60 59 60 64
9 6 5 9 9 2 16 10 13 25 18 19 12 11 10 11 14 18 26 29 30 27 22 20 41 47 48 47 45 45 47 50 54 55 58 56 59 63 63 65 68 68 69 71
4 7 4 4 7 16 18 3 9 13 15 17 34 11 20 18 6 26 31 36 27 14 27 43 46 47 48 50 44 45 50 55 60 61 64 63 64 68 69 71 73 75 80 82
2 5 7 5 6 13 8 3 7 8 16 6 14 19 23 21 3 7 11 3 21 35 41 44 47 51 53 51 50 56 65 68 70 71 71 69 69 72 73 77 78 79 82 84
4 5 26 16 11 17 19 18 9 8 10 3 9 26 35 12 17 8 18 32 41 48 54 54 54 58 61 60 60 70 74 73 71 73 73 72 71 74 76 81 81 81 85 88
14 13 10 7 6 19 13 10 12 7 10 11 11 16 24 24 20 27 33 39 48 50 51 51 56 56 52 54 63 69 74 72 76 76 73 75 74 74 77 81 84 83 86 88
6 15 8 19 15 15 31 18 28 16 16 20 21 23 24 25 32 42 46 46 47 44 45 48 49 55 57 56 60 70 71 74 75 75 76 75 76 78 78 83 86 86 85 84
11 18 6 4 17 48 47 48 59 49 40 37 32 29 31 41 41 47 47 51 47 45 47 51 57 62 64 60 62 68 72 72 75 77 76 76 78 80 83 85 84 86 86 81
13 11 9 14 32 58 59 57 56 45 33 32 34 37 40 40 46 46 50 49 49 52 54 59 65 69 72 71 71 71 73 73 77 78 78 78 79 84 88 88 87 87 84 73
27 19 9 20 49 38 50 43 31 32 43 44 38 44 48 49 47 47 49 48 53 58 64 70 74 78 79 77 79 79 77 76 78 78 78 78 79 86 90 92 95 88 78 67
Wind_Direction_500mb
27 67 82 25 2 279 275 89 94 130 339 345 294 6 5 72 81 86 84 75 62 46 355 329 246 211 205 213 218 228 237 230 221 219 227 241 252 261 276 300 314 320 323 321
27 75 350 308 338 34 29 66 13 54 18 21 1 316 140 93 76 88 94 80 64 47 28 33 50 168 191 202 207 220 240 243 226 222 232 243 258 269 290 308 310 318 323 318
105 259 310 62 30 49 40 69 28 243 328 340 349 330 162 73 96 87 84 86 71 55 51 55 64 109 171 181 193 211 235 243 232 228 235 249 261 274 290 300 311 319 320 316
74 356 40 64 69 33 133 343 64 22 49 236 61 270 230 184 113 87 89 83 80 69 66 61 87 112 142 172 189 191 209 232 236 236 246 253 257 262 281 299 314 319 318 315
266 23 40 64 353 356 137 45 55 70 79 53 333 69 279 144 155 154 115 102 91 81 78 73 74 92 122 157 183 199 215 231 237 242 247 247 247 261 274 295 309 315 314 309
102 49 53 35 49 51 83 57 32 48 86 13 259 126 260 193 181 161 131 110 105 104 106 100 96 99 106 118 142 164 183 198 214 231 237 243 254 258 272 291 305 311 313 308
355 30 19 22 57 358 60 55 354 356 8 225 321 30 246 228 157 153 141 120 108 109 108 107 101 99 101 110 120 134 158 190 212 231 243 251 257 264 274 288 297 300 302 304
107 330 24 354 35 252 71 139 156 206 241 262 11 235 261 139 123 130 124 119 127 117 112 104 98 94 93 93 90 86 84 64 284 278 275 276 277 279 281 286 289 290 290 291
86 297 20 45 4 64 287 29 148 95 69 45 238 288 297 164 128 132 130 143 138 135 130 119 114 103 93 80 66 47 27 3 337 325 317 307 302 300 299 298 299 296 292 288
166 6 254 280 33 37 151 294 37 1 7 286 290 280 235 222 205 207 151 160 162 158 152 141 133 117 94 61 17 354 340 330 323 317 310 306 301 299 298 298 298 299 299 299
126 99 291 49 187 181 25 333 22 130 161 187 259 261 205 218 199 182 172 173 168 168 169 174 182 203 284 320 329 333 330 326 323 320 317 313 309 303 300 298 294 293 293 294
184 141 219 228 179 148 183 196 170 134 274 235 160 269 236 250 223 183 178 179 176 180 188 202 220 259 296 315 326 330 329 324 319 315 312 312 310 306 304 304 304 300 294 289
165 317 1 336 350 350 210 204 162 144 122 217 153 263 337 348 182 188 182 186 191 198 206 220 237 259 295 317 326 325 322 315 310 307 307 307 306 304 305 305 304 303 302 301
178 204 173 203 213 157 214 205 201 163 149 206 232 269 246 237 216 198 197 198 203 212 219 229 245 279 314 322 325 323 316 307 304 303 304 305 304 304 304 304 303 301 300 299
134 217 205 268 238 222 233 179 205 200 214 203 262 224 269 211 208 210 210 206 215 227 234 241 247 275 323 326 321 313 304 304 302 303 304 307 310 311 310 307 304 301 298 296
86 270 94 283 280 279 280 237 224 234 242 247 257 274 174 276 218 216 222 225 233 243 253 249 247 291 319 322 317 309 311 313 310 310 311 312 314 313 314 312 308 303 301 299
155 137 64 265 340 338 307 222 207 213 215 219 236 251 175 208 209 218 219 221 245 253 268 271 264 298 309 312 314 315 319 316 317 317 318 317 315 313 313 315 314 311 305 300
168 112 121 262 8 176 250 205 197 219 240 224 285 251 204 206 196 218 228 234 247 262 268 284 306 305 308 308 307 313 317 318 318 316 316 318 314 313 313 314 314 312 309 305
243 141 303 224 199 300 283 164 158 181 275 213 227 219 180 148 175 267 259 255 265 247 296 309 311 306 309 302 305 311 315 318 318 318 317 316 313 311 313 312 312 311 312 309
60 90 192 67 191 236 246 178 158 115 283 286 212 173 168 156 139 245 140 292 304 309 309 306 305 305 302 301 299 305 311 314 316 314 312 313 312 309 308 308 308 308 309 307
154 241 226 223 245 282 253 233 149 93 259 143 166 176 173 185 235 164 274 297 306 308 306 303 301 299 297 297 296 300 306 309 314 312 310 309 307 306 304 304 305 306 308 305
173 176 206 182 199 279 186 114 174 216 187 192 190 197 206 235 263 279 285 291 303 300 297 297 300 301 303 297 295 300 307 312 310 309 306 305 305 302 300 302 305 306 307 305
274 203 194 185 208 239 203 231 232 233 247 231 238 237 237 252 274 287 292 300 305 305 306 308 309 308 304 303 304 304 307 309 308 307 304 305 302 300 301 302 304 306 306 303
257 208 225 41 242 255 273 272 258 257 266 274 264 248 248 273 283 290 294 304 305 306 307 309 309 306 305 306 306 305 306 307 307 305 305 303 300 301 302 302 304 305 304 302
224 136 213 260 280 282 284 274 278 278 270 264 263 261 270 276 285 291 294 298 301 302 305 307 305 306 306 306 303 304 305 307 306 306 304 301 301 301 302 302 303 303 299 295
223 236 223 260 271 268 277 291 270 278 283 285 280 283 283 282 287 293 292 295 298 300 305 306 305 305 307 306 305 306 308 309 307 303 300 299 299 300 300 301 303 300 297 292
Wind_Speed_850mb
7 12 6 3 4 3 5 3 5 5 3 4 2 5 6 14 28 27 28 26 19 15 12 11 10 29 28 27 33 31 26 25 31 28 25 22 19 18 16 15 16 19 25 26
12 6 4 6 8 6 10 5 4 2 4 6 9 8 2 14 16 26 29 25 17 12 12 14 7 12 21 24 22 26 24 21 26 25 21 22 18 16 14 19 19 21 27 29
9 2 9 5 12 9 8 6 5 3 13 4 10 7 5 6 27 30 28 24 20 18 17 16 15 11 18 22 21 19 20 17 19 23 25 21 19 18 19 22 24 29 31 30
10 10 6 9 8 5 3 6 5 6 9 4 7 8 9 9 10 15 21 23 22 19 19 22 16 16 15 18 23 21 21 20 20 22 22 21 20 19 19 22 28 32 33 31
5 7 10 10 2 4 4 6 7 6 7 8 8 7 14 15 7 8 19 25 23 22 21 21 24 19 14 14 18 24 24 23 21 19 19 20 19 18 17 21 28 32 32 29
4 4 6 3 5 6 7 8 12 7 6 6 8 8 9 12 14 10 20 25 24 20 19 18 16 17 20 19 16 15 14 14 13 12 13 16 19 20 22 24 29 32 34 32
7 4 5 9 3 7 11 10 7 9 7 10 7 4 17 4 12 19 28 26 23 17 17 16 17 18 16 14 13 11 10 9 10 13 17 21 25 28 32 34 37 37 35 34
7 12 6 14 6 4 1 11 9 11 4 8 7 11 10 7 32 38 35 28 20 18 16 18 20 21 21 19 16 12 8 2 5 12 18 24 29 35 41 45 46 45 44 41
6 7 3 9 7 5 6 2 3 12 4 7 6 12 9 6 11 29 26 21 18 17 16 16 16 15 15 14 12 10 8 8 10 12 15 19 23 27 31 34 38 42 44 48
4 5 3 5 2 6 8 2 8 6 1 9 11 12 11 14 18 8 22 23 21 18 16 13 11 8 5 4 9 13 16 20 23 24 26 28 31 34 36 38 40 42 42 42
8 8 9 4 6 12 4 4 3 4 8 9 4 12 10 16 17 21 34 29 26 23 17 12 8 5 4 8 15 20 24 28 30 32 34 35 36 38 41 45 48 50 50 49
4 8 6 15 5 5 6 11 10 8 12 5 4 17 4 13 31 49 44 33 26 21 17 13 7 6 7 14 19 24 29 34 38 41 42 41 41 42 42 44 44 46 52 54
7 3 6 14 6 6 7 10 8 5 3 11 7 17 5 7 22 50 45 37 30 25 20 16 12 10 12 17 23 29 34 38 42 44 46 47 47 49 49 49 48 47 48 48
3 6 13 13 14 9 8 9 11 10 6 7 22 24 11 11 14 34 41 39 32 27 24 19 17 12 17 24 31 36 38 38 41 43 44 46 47 50 52 54 53 53 52 55
6 9 3 9 16 11 12 9 19 20 22 17 50 26 21 23 28 61 60 41 31 27 26 26 21 15 22 33 40 38 37 37 38 40 41 43 45 49 52 55 56 56 57 59
1 7 5 11 16 13 14 19 22 33 40 33 46 54 12 15 30 40 55 45 34 29 27 30 26 23 37 48 46 37 37 37 40 43 45 47 49 51 51 53 55 58 61 62
7 7 5 12 8 11 16 18 33 14 7 22 30 36 10 3 20 36 46 45 37 30 28 27 31 38 49 49 40 39 42 44 47 49 50 53 55 58 57 59 60 59 60 64
9 6 5 9 9 2 16 10 13 25 18 19 12 11 10 11 14 18 26 29 30 27 22 20 41 47 48 47 45 45 47 50 54 55 58 56 59 63 63 65 68 68 69 71
4 7 4 4 7 16 18 3 9 13 15 17 34 11 20 18 6 26 31 36 27 14 27 43 46 47 48 50 44 45 50 55 60 61 64 63 64 68 69 71 73 75 80 82
2 5 7 5 6 13 8 3 7 8 16 6 14 19 23 21 3 7 11 3 21 35 41 44 47 51 53 51 50 56 65 68 70 71 71 69 69 72 73 77 78 79 82 84
4 5 26 16 11 17 19 18 9 8 10 3 9 26 35 12 17 8 18 32 41 48 54 54 54 58 61 60 60 70 74 73 71 73 73 72 71 74 76 81 81 81 85 88
14 13 10 7 6 19 13 10 12 7 10 11 11 16 24 24 20 27 33 39 48 50 51 51 56 56 52 54 63 69 74 72 76 76 73 75 74 74 77 81 84 83 86 88
6 15 8 19 15 15 31 18 28 16 16 20 21 23 24 25 32 42 46 46 47 44 45 48 49 55 57 56 60 70 71 74 75 75 76 75 76 78 78 83 86 86 85 84
11 18 6 4 17 48 47 48 59 49 40 37 32 29 31 41 41 47 47 51 47 45 47 51 57 62 64 60 62 68 72 72 75 77 76 76 78 80 83 85 84 86 86 81
13 11 9 14 32 58 59 57 56 45 33 32 34 37 40 40 46 46 50 49 49 52 54 59 65 69 72 71 71 71 73 73 77 78 78 78 79 84 88 88 87 87 84 73
27 19 9 20 49 38 50 43 31 32 43 44 38 44 48 49 47 47 49 48 53 58 64 70 74 78 79 77 79 79 77 76 78 78 78 78 79 86 90 92 95 88 78 67
Wind_Direction_850mb
27 67 82 25 2 279 275 89 94 130 339 345 294 6 5 72 81 86 84 75 62 46 355 329 246 211 205 213 218 228 237 230 221 219 227 241 252 261 276 300 314 320 323 321
27 75 350 308 338 34 29 66 13 54 18 21 1 316 140 93 76 88 94 80 64 47 28 33 50 168 191 202 207 220 240 243 226 222 232 243 258 269 290 308 310 318 323 318
105 259 310 62 30 49 40 69 28 243 328 340 349 330 162 73 96 87 84 86 71 55 51 55 64 109 171 181 193 211 235 243 232 228 235 249 261 274 290 300 311 319 320 316
74 356 40 64 69 33 133 343 64 22 49 236 61 270 230 184 113 87 89 83 80 69 66 61 87 112 142 172 189 191 209 232 236 236 246 253 257 262 281 299 314 319 318 315
266 23 40 64 353 356 137 45 55 70 79 53 333 69 279 144 155 154 115 102 91 81 78 73 74 92 122 157 183 199 215 231 237 242 247 247 247 261 274 295 309 315 314 309
102 49 53 35 49 51 83 57 32 48 86 13 259 126 260 193 181 161 131 110 105 104 106 100 96 99 106 118 142 164 183 198 214 231 237 243 254 258 272 291 305 311 313 308
355 30 19 22 57 358 60 55 354 356 8 225 321 30 246 228 157 153 141 120 108 109 108 107 101 99 101 110 120 134 158 190 212 231 243 251 257 264 274 288 297 300 302 304
107 330 24 354 35 252 71 139 156 206 241 262 11 235 261 139 123 130 124 119 127 117 112 104 98 94 93 93 90 86 84 64 284 278 275 276 277 279 281 286 289 290 290 291
86 297 20 45 4 64 287 29 148 95 69 45 238 288 297 164 128 132 130 143 138 135 130 119 114 103 93 80 66 47 27 3 337 325 317 307 302 300 299 298 299 296 292 288
166 6 254 280 33 37 151 294 37 1 7 286 290 280 235 222 205 207 151 160 162 158 152 141 133 117 94 61 17 354 340 330 323 317 310 306 301 299 298 298 298 299 299 299
126 99 291 49 187 181 25 333 22 130 161 187 259 261 205 218 199 182 172 173 168 168 169 174 182 203 284 320 329 333 330 326 323 320 317 313 309 303 300 298 294 293 293 294
184 141 219 228 179 148 183 196 170 134 274 235 160 269 236 250 223 183 178 179 176 180 188 202 220 259 296 315 326 330 329 324 319 315 312 312 310 306 304 304 304 300 294 289
165 317 1 336 350 350 210 204 162 144 122 217 153 263 337 348 182 188 182 186 191 198 206 220 237 259 295 317 326 325 322 315 310 307 307 307 306 304 305 305 304 303 302 301
178 204 173 203 213 157 214 205 201 163 149 206 232 269 246 237 216 198 197 198 203 212 219 229 245 279 314 322 325 323 316 307 304 303 304 305 304 304 304 304 303 301 300 299
134 217 205 268 238 222 233 179 205 200 214 203 262 224 269 211 208 210 210 206 215 227 234 241 247 275 323 326 321 313 304 304 302 303 304 307 310 311 310 307 304 301 298 296
86 270 94 283 280 279 280 237 224 234 242 247 257 274 174 276 218 216 222 225 233 243 253 249 247 291 319 322 317 309 311 313 310 310 311 312 314 313 314 312 308 303 301 299
155 137 64 265 340 338 307 222 207 213 215 219 236 251 175 208 209 218 219 221 245 253 268 271 264 298 309 312 314 315 319 316 317 317 318 317 315 313 313 315 314 311 305 300
168 112 121 262 8 176 250 205 197 219 240 224 285 251 204 206 196 218 228 234 247 262 268 284 306 305 308 308 307 313 317 318 318 316 316 318 314 313 313 314 314 312 309 305
243 141 303 224 199 300 283 164 158 181 275 213 227 219 180 148 175 267 259 255 265 247 296 309 311 306 309 302 305 311 315 318 318 318 317 316 313 311 313 312 312 311 312 309
60 90 192 67 191 236 246 178 158 115 283 286 212 173 168 156 139 245 140 292 304 309 309 306 305 305 302 301 299 305 311 314 316 314 312 313 312 309 308 308 308 308 309 307
154 241 226 223 245 282 253 233 149 93 259 143 166 176 173 185 235 164 274 297 306 308 306 303 301 299 297 297 296 300 306 309 314 312 310 309 307 306 304 304 305 306 308 305
173 176 206 182 199 279 186 114 174 216 187 192 190 197 206 235 263 279 285 291 303 300 297 297 300 301 303 297 295 300 307 312 310 309 306 305 305 302 300 302 305 306 307 305
274 203 194 185 208 239 203 231 232 233 247 231 238 237 237 252 274 287 292 300 305 305 306 308 309 308 304 303 304 304 307 309 308 307 304 305 302 300 301 302 304 306 306 303
257 208 225 41 242 255 273 272 258 257 266 274 264 248 248 273 283 290 294 304 305 306 307 309 309 306 305 306 306 305 306 307 307 305 305 303 300 301 302 302 304 305 304 302
224 136 213 260 280 282 284 274 278 278 270 264 263 261 270 276 285 291 294 298 301 302 305 307 305 306 306 306 303 304 305 307 306 306 304 301 301 301 302 302 303 303 299 295
223 236 223 260 271 268 277 291 270 278 283 285 280 283 283 282 287 293 292 295 298 300 305 306 305 305 307 306 305 306 308 309 307 303 300 299 299 300 300 301 303 300 297 292